Location: Sihaung
(22.8641°N, 94.0549°E)
Time: 12:49:33
(UTC+00:00)

Cosmos 2219 Rocket - Pass Details

Date: 03 March 2021
Orbit: 826 x 848 km, 71.0° (Epoch: 17 April)

Event Time Altitude Azimuth Distance (km) Brightness Sun altitude
Rises 12:29:10 0° 176° (S) 3,348 5.3 -10.3°
Reaches altitude 10° 12:31:46 10° 168° (SSE) 2,418 4.5 -10.9°
Maximum altitude 12:36:46 35° 103° (ESE) 1,302 2.7 -12.0°
Drops below altitude 10° 12:41:46 10° 39° (NE) 2,430 4.2 -13.2°
Sets 12:44:23 0° 31° (NNE) 3,367 5.0 -13.8°
